Location: Milo
(50.5667°N, 112.8833°W)
Time: 03:25:13
(UTC+00:00)

ISS - Pass Details

Date: 01 December 2021
Orbit: 413 x 422 km, 51.6° (Epoch: 22 January)

Event Time Altitude Azimuth Distance (km) Brightness Sun altitude
Rises 00:29:40 0° 271° (W) 2,385 1.4 -9.0°
Reaches altitude 10° 00:31:47 10° 273° (W) 1,518 0.2 -9.4°
Maximum altitude 00:35:11 71° 359° (N) 452 -3.7 -9.9°
Enters shadow 00:37:56 15° 82° (E) 1,256 -2.0 -10.3°
